Regional Weather Roundup
Issued by NWS

Home | Current Version | Previous Version | Text Only | Print | Product List | Glossary Off
Versions: 1 2 3 4 5 6 7 8 9 10 11 12 13 14 15 16 17 18 19 20 21 22 23 24 25 26 27 28 29 30 31 32 33 34 35 36 37 38 39 40 41 42 43 44 45 46 47 48 49 50

197
ASUS43 KOAX 140702
RWRNE

WEATHER ROUNDUP FOR NEBRASKA
NATIONAL WEATHER SERVICE OMAHA NE
100 AM CST THU DEC 14 2017

NOTES: SATELLITE DATA IS BEING USED TO AUGMENT CLOUD COVER ABOVE
       12000 FEET.
       "FAIR" INDICATES FEW OR NO CLOUDS BELOW 12,000 FEET WITH NO
       SIGNIFICANT WEATHER AND/OR OBSTRUCTIONS TO VISIBILITY.


NEZ001>004-019>022-054>056-140800-
NEBRASKA PANHANDLE

CITY           SKY/WX    TMP DP  RH WIND       PRES   REMARKS
SCOTTSBLUFF    CLOUDY    33  30  88 W12       30.15F WCI  24
ALLIANCE       CLOUDY    35  24  64 NW10      30.11F WCI  27
CHADRON        CLOUDY    36  23  59 W15       30.11F WCI  27
GORDON         CLOUDY    37  26  64 W9        30.08S WCI  30
KIMBALL        CLOUDY    32  26  77 NW17      30.14S WCI  21
SIDNEY         CLOUDY    34  26  72 N23G31    30.12S WCI  22
$$

NEZ057>060-069>072-079>082-140800-
SOUTHWEST NEBRASKA

CITY           SKY/WX    TMP DP  RH WIND       PRES   REMARKS
NORTH PLATTE   CLOUDY    34  23  64 NW5       30.08F WCI  30
IMPERIAL       CLOUDY    37  21  52 W7        30.12R WCI  32
LEXINGTON      CLOUDY    37  23  55 NW8       30.07R WCI  31
MCCOOK         CLOUDY    37  22  54 NW9       30.09F WCI  30
OGALLALA       CLOUDY    36  23  59 W7        30.11R WCI  31
$$

NEZ005>010-023>029-035>040-094-140800-
NORTH CENTRAL NEBRASKA

CITY           SKY/WX    TMP DP  RH WIND       PRES   REMARKS
VALENTINE      CLOUDY    35  22  58 W7        30.05F WCI  29
AINSWORTH      PTCLDY    29  26  86 W3        30.04F
BROKEN BOW     CLOUDY    31  23  72 N7        30.05S WCI  24
O`NEILL        CLOUDY    33  27  77 NW9       30.03F WCI  26
ORD            CLOUDY    33  25  72 NW9       30.05R WCI  25
THEDFORD       CLOUDY    37  23  56 NW8       30.07S WCI  31
$$

NEZ041-046>049-061>064-073>077-083>087-140800-
SOUTH CENTRAL NEBRASKA

CITY           SKY/WX    TMP DP  RH WIND       PRES   REMARKS
GRAND ISLAND   CLOUDY    32  26  78 NW8       30.06R WCI  25
AURORA         CLOUDY    32  26  78 NW8       30.04S WCI  25
HASTINGS       CLOUDY    33  25  72 N10       30.06R WCI  25
HEBRON         CLOUDY    32  26  77 NW6       30.05R WCI  26
HOLDREGE       CLOUDY    32  24  71 N5        30.07S WCI  28
KEARNEY        CLOUDY    32  25  75 N7        30.07S WCI  26
$$

NEZ011>018-030>034-042>045-140800-
NORTHEAST NEBRASKA

CITY           SKY/WX    TMP DP  RH WIND       PRES   REMARKS
NORFOLK        CLOUDY    35  23  61 NW13      30.01R WCI  26
ALBION         CLOUDY    35  26  71 NW7       30.03R WCI  29
BLAIR          CLOUDY    36  29  77 N10       29.98S WCI  28
COLUMBUS       CLOUDY    36  24  62 NW13      30.03R WCI  27
FREMONT        CLOUDY    37  26  65 N8G17     30.00F WCI  31
TEKAMAH        CLOUDY    36  25  64 N14       30.01R WCI  27
WAYNE          CLOUDY    35  25  67 NW7       30.01R WCI  29
$$

NEZ050>053-065>068-078-088>093-140800-
SOUTHEAST NEBRASKA

CITY           SKY/WX    TMP DP  RH WIND       PRES   REMARKS
LINCOLN        CLOUDY    38  24  57 N15       30.02F WCI  29
OMAHA EPPLEY   CLOUDY    37  25  61 N14       30.00R WCI  28
BEATRICE       CLOUDY    34  28  77 NW8       30.01R WCI  27
FALLS CITY     CLOUDY    39  26  59 N9        29.99R WCI  33
NEBRASKA CITY  CLOUDY    38  28  68 N10       29.98S WCI  31
PLATTSMOUTH    CLOUDY    37  28  69 NW9       29.99S WCI  31
$$

NEZ044-045-051>053-067-140800-
OMAHA AREA

CITY           SKY/WX    TMP DP  RH WIND       PRES   REMARKS
OMAHA EPPLEY   CLOUDY    37  25  61 N14       30.00R WCI  28
BLAIR          CLOUDY    36  29  77 N10       29.98S WCI  28
FREMONT        CLOUDY    37  26  65 N8G17     30.00F WCI  31
OFFUTT AFB     CLOUDY    38  27  65 N13       29.99S WCI  30
PLATTSMOUTH    CLOUDY    37  28  69 NW9       29.99S WCI  31
WAHOO          CLOUDY    38  24  57 N16       30.00S WCI  28
$$




USA.gov is the U.S. government's official web portal to all federal, state and local government web resources and services.